Weather History for Luverne, MN

Change the Weather History Date:

Tuesday, September 18, 2012

  Actual Average (KFSD) Record (KFSD)
Temperature  
Mean Temperature 48 °F 60 °F  
Max Temperature 62 °F 72 °F 94 °F (1947)
Min Temperature 33 °F 48 °F 27 °F (1902)
Degree Days  
Heating Degree Days 18 6  
Month to date heating degree days 69  
Since 1 July heating degree days 100  
Cooling Degree Days 0 1  
Month to date cooling degree days 51  
Year to date cooling degree days 676  
Moisture  
Dew Point 32 °F    
Average Humidity 58    
Maximum Humidity 93    
Minimum Humidity 27    
Precipitation  
Precipitation 0.00 in 0.08 in 2.07 in (1986)
Month to date precipitation 1.70  
Year to date precipitation 21.09  
Snow  
Snow 0.00 in 0.00 in T in (1929)
Month to date snowfall 0.0  
Since 1 July snowfall 0.0  
Since 1 September snowfall 0.0  
Snow Depth -    
Sea Level Pressure  
Sea Level Pressure 30.02 in    
Wind  
Wind Speed 3 mph (SW)    
Max Wind Speed 10 mph    
Max Gust Speed -    
Visibility 10 miles    
Events      
T = Trace of Precipitation, MM = Missing Value Source: NWS Daily Summary

Daily Weather History Graph

Daily Weather History Graph

Search for Another Location

Airport:

Trip Planner

Search our weather history database for the weather conditions in past years. The results will help you decide how hot, cold, wet, or windy it might be!

Date:

Astronomy

Sep. 18, 2012 Rise Set
Actual Time 7:08 AM CDT 7:28 PM CDT
Civil Twilight 6:39 AM CDT 7:57 PM CDT
Nautical Twilight 6:05 AM CDT 8:30 PM CDT
Astronomical Twilight 5:30 AM CDT 9:05 PM CDT
Moon 10:17 AM CDT (9/18) 8:44 PM CDT (9/18)
Length of Visible Light 13h 17m
Length of Day
12h 20m
Waxing Crescent, 9% of the Moon is Illuminated
Sep 18
Waxing Crescent
Sep 22
First Quarter
Sep 29
Full
Oct 8
Last Quarter
Oct 15
New

Hourly Weather History & Observations

Time (CDT) Temp. Windchill Dew Point Humidity Pressure Visibility Wind Dir Wind Speed Gust Speed Precip Events Conditions
12:14 AM 41.0 °F - 35.6 °F 81% 30.08 in 10.0 mi Calm Calm - N/A   Clear
12:34 AM 41.0 °F 38.0 °F 35.6 °F 81% 30.08 in 10.0 mi NW 4.6 mph - N/A   Clear
12:54 AM 41.0 °F 38.0 °F 35.6 °F 81% 30.09 in 10.0 mi NNW 4.6 mph - N/A   Clear
1:14 AM 39.2 °F - 35.6 °F 87% 30.08 in 10.0 mi Calm Calm - N/A   Clear
1:34 AM 39.2 °F - 33.8 °F 81% 30.09 in 10.0 mi Calm Calm - N/A   Clear
1:54 AM 41.0 °F - 33.8 °F 76% 30.09 in 10.0 mi Calm Calm - N/A   Clear
2:14 AM 37.4 °F - 33.8 °F 87% 30.08 in 10.0 mi Calm Calm - N/A   Clear
2:34 AM 37.4 °F 33.8 °F 33.8 °F 87% 30.09 in 10.0 mi NNW 4.6 mph - N/A   Clear
2:54 AM 37.4 °F 34.9 °F 33.8 °F 87% 30.08 in 10.0 mi NNW 3.5 mph - N/A   Clear
3:14 AM 37.4 °F 34.9 °F 33.8 °F 87% 30.08 in 10.0 mi NNW 3.5 mph - N/A   Clear
3:34 AM 37.4 °F - 33.8 °F 87% 30.08 in 10.0 mi Calm Calm - N/A   Clear
3:54 AM 35.6 °F - 32.0 °F 87% 30.08 in 10.0 mi Calm Calm - N/A   Clear
4:14 AM 35.6 °F 31.7 °F 32.0 °F 87% 30.08 in 10.0 mi NW 4.6 mph - N/A   Clear
4:34 AM 33.8 °F - 32.0 °F 93% 30.08 in 10.0 mi Calm Calm - N/A   Clear
4:54 AM 35.6 °F 32.8 °F 32.0 °F 87% 30.08 in 10.0 mi NW 3.5 mph - N/A   Clear
5:14 AM 33.8 °F 30.8 °F 32.0 °F 93% 30.08 in 10.0 mi NW 3.5 mph - N/A   Clear
5:35 AM 33.8 °F 30.8 °F 32.0 °F 93% 30.09 in 10.0 mi NW 3.5 mph - N/A   Clear
5:54 AM 33.8 °F - 32.0 °F 93% 30.09 in 10.0 mi Calm Calm - N/A   Clear
6:14 AM 33.8 °F 30.8 °F 32.0 °F 93% 30.10 in 10.0 mi NNW 3.5 mph - N/A   Clear
6:34 AM 35.6 °F 32.8 °F 32.0 °F 87% 30.09 in 10.0 mi NW 3.5 mph - N/A   Clear
6:54 AM 35.6 °F - 32.0 °F 87% 30.09 in 10.0 mi Calm Calm - N/A   Clear
7:13 AM 35.6 °F - 33.8 °F 93% 30.09 in 10.0 mi Calm Calm - N/A   Clear
7:34 AM 37.4 °F - 33.8 °F 87% 30.09 in 10.0 mi Calm Calm - N/A   Clear
7:54 AM 37.4 °F 34.9 °F 33.8 °F 87% 30.09 in 10.0 mi North 3.5 mph - N/A   Clear
8:14 AM 37.4 °F - 33.8 °F 87% 30.10 in 10.0 mi Calm Calm - N/A   Clear
8:34 AM 39.2 °F - 35.6 °F 87% 30.09 in 10.0 mi Calm Calm - N/A   Clear
8:54 AM 41.0 °F - 35.6 °F 81% 30.10 in 10.0 mi Calm Calm - N/A   Clear
9:14 AM 42.8 °F - 35.6 °F 76% 30.10 in 10.0 mi Calm Calm - N/A   Clear
9:34 AM 44.6 °F - 37.4 °F 76% 30.10 in 10.0 mi Calm Calm - N/A   Clear
9:54 AM 50.0 °F - 37.4 °F 62% 30.09 in 10.0 mi Calm Calm - N/A   Clear
10:14 AM 51.8 °F - 35.6 °F 54% 30.09 in 10.0 mi Calm Calm - N/A   Clear
10:34 AM 53.6 °F - 33.8 °F 47% 30.09 in 10.0 mi Calm Calm - N/A   Clear
10:55 AM 55.4 °F - 32.0 °F 41% 30.08 in 10.0 mi West 8.1 mph - N/A   Clear
11:14 AM 55.4 °F - 32.0 °F 41% 30.08 in 10.0 mi West 9.2 mph - N/A   Clear
11:34 AM 55.4 °F - 30.2 °F 38% 30.07 in 10.0 mi Calm Calm - N/A   Clear
11:55 AM 57.2 °F - 32.0 °F 38% 30.07 in 10.0 mi West 6.9 mph - N/A   Clear
12:14 PM 57.2 °F - 32.0 °F 38% 30.06 in 10.0 mi WNW 5.8 mph - N/A   Scattered Clouds
12:34 PM 59.0 °F - 32.0 °F 36% 30.06 in 10.0 mi West 8.1 mph - N/A   Mostly Cloudy
12:54 PM 59.0 °F - 32.0 °F 36% 30.05 in 10.0 mi WSW 6.9 mph - N/A   Scattered Clouds
1:14 PM 60.8 °F - 30.2 °F 31% 30.04 in 10.0 mi SSW 3.5 mph - N/A   Clear
1:33 PM 60.8 °F - 28.4 °F 29% 30.03 in 10.0 mi NW 4.6 mph - N/A   Clear
1:54 PM 60.8 °F - 28.4 °F 29% 30.02 in 10.0 mi Calm Calm - N/A   Scattered Clouds
2:14 PM 62.6 °F - 28.4 °F 27% 30.01 in 10.0 mi West 5.8 mph - N/A   Mostly Cloudy
2:34 PM 60.8 °F - 30.2 °F 31% 30.00 in 10.0 mi West 4.6 mph - N/A   Overcast
2:54 PM 60.8 °F - 28.4 °F 29% 30.00 in 10.0 mi Calm Calm - N/A   Overcast
3:14 PM 60.8 °F - 28.4 °F 29% 29.99 in 10.0 mi West 6.9 mph - N/A   Overcast
3:34 PM 62.6 °F - 30.2 °F 30% 29.99 in 10.0 mi West 6.9 mph - N/A   Overcast
3:54 PM 60.8 °F - 30.2 °F 31% 29.99 in 10.0 mi West 4.6 mph - N/A   Overcast
4:14 PM 60.8 °F - 30.2 °F 31% 29.98 in 10.0 mi SW 4.6 mph - N/A   Overcast
4:34 PM 62.6 °F - 28.4 °F 27% 29.97 in 10.0 mi SW 3.5 mph - N/A   Overcast
4:54 PM 62.6 °F - 28.4 °F 27% 29.96 in 10.0 mi South 5.8 mph - N/A   Overcast
5:15 PM 62.6 °F - 28.4 °F 27% 29.95 in 10.0 mi SSW 8.1 mph - N/A   Scattered Clouds
5:34 PM 62.6 °F - 28.4 °F 27% 29.95 in 10.0 mi South 6.9 mph - N/A   Scattered Clouds
5:54 PM 62.6 °F - 28.4 °F 27% 29.94 in 10.0 mi SSE 9.2 mph - N/A   Mostly Cloudy
6:15 PM 62.6 °F - 30.2 °F 30% 29.93 in 10.0 mi SSE 10.4 mph - N/A   Mostly Cloudy
6:34 PM 62.6 °F - 30.2 °F 30% 29.93 in 10.0 mi SSE 5.8 mph - N/A   Scattered Clouds
6:54 PM 62.6 °F - 30.2 °F 30% 29.92 in 10.0 mi SSE 3.5 mph - N/A   Scattered Clouds
7:15 PM 60.8 °F - 32.0 °F 34% 29.92 in 10.0 mi SSE 4.6 mph - N/A   Scattered Clouds
7:34 PM 57.2 °F - 32.0 °F 38% 29.91 in 10.0 mi SE 5.8 mph - N/A   Clear
7:54 PM 55.4 °F - 33.8 °F 44% 29.91 in 10.0 mi SE 5.8 mph - N/A   Clear
8:14 PM 53.6 °F - 33.8 °F 47% 29.91 in 10.0 mi SE 4.6 mph - N/A   Clear
8:34 PM 53.6 °F - 32.0 °F 44% 29.91 in 10.0 mi SSE 5.8 mph - N/A   Clear
8:54 PM 53.6 °F - 32.0 °F 44% 29.90 in 10.0 mi SSE 5.8 mph - N/A   Clear
9:14 PM 53.6 °F - 32.0 °F 44% 29.90 in 10.0 mi SSE 6.9 mph - N/A   Clear
9:34 PM 53.6 °F - 32.0 °F 44% 29.90 in 10.0 mi South 5.8 mph - N/A   Clear
9:54 PM 51.8 °F - 32.0 °F 47% 29.89 in 10.0 mi SSE 5.8 mph - N/A   Clear
10:14 PM 51.8 °F - 32.0 °F 47% 29.89 in 10.0 mi SSE 5.8 mph - N/A   Clear
10:54 PM 50.0 °F - 33.8 °F 54% 29.88 in 10.0 mi South 6.9 mph - N/A   Clear
11:14 PM 50.0 °F - 33.8 °F 54% 29.87 in 10.0 mi South 5.8 mph - N/A   Clear
11:34 PM 50.0 °F - 33.8 °F 54% 29.86 in 10.0 mi South 5.8 mph - N/A   Clear
11:55 PM 48.2 °F - 33.8 °F 58% 29.86 in 10.0 mi South 4.6 mph - N/A   Clear